YO6IKB-10 Weather Reports


time (UTC)temp
C
wind
direction
speed
KPH
gust
KPH
rain 1hr
cm
rain 24hr
cm
rain mn
cm
humidity
%
barometer
mb
20260510102446 22 292 4.8 12.9 0.00 2.06 0.00 60 1011.2
20260510101946 21 292 3.2 24.1 0.00 2.06 0.00 61 1011.2
20260510101446 21 247 14.5 16.1 0.00 2.06 0.00 60 1011.2
20260510100945 21 292 4.8 19.3 0.00 2.06 0.00 60 1011.4
20260510100445 21 292 8.0 19.3 0.00 2.06 0.00 61 1011.3
20260510095945 21 315 6.4 11.3 0.00 2.06 0.00 62 1011.3
20260510095445 21 292 11.3 19.3 0.00 2.06 0.00 61 1011.4
20260510094944 21 292 9.7 16.1 0.00 2.06 0.00 63 1011.4
20260510094444 20 315 9.7 9.7 0.00 2.06 0.00 65 1011.5
20260510093944 20 292 3.2 16.1 0.00 2.06 0.00 66 1011.5
20260510093443 20 292 3.2 9.7 0.00 2.06 0.00 66 1011.6
20260510092943 20 337 3.2 14.5 0.00 2.16 0.00 65 1011.7
20260510092443 20 292 6.4 14.5 0.00 2.16 0.00 66 1011.7
20260510091942 20 315 3.2 12.9 0.00 2.16 0.00 68 1011.8
20260510091442 20 292 6.4 12.9 0.00 2.16 0.00 67 1011.9
20260510090942 19 292 12.9 14.5 0.00 2.16 0.00 68 1011.9
20260510090442 19 337 0.0 9.7 0.00 2.16 0.00 68 1011.9
20260510085941 18 292 6.4 12.9 0.00 2.16 0.00 69 1012.0
20260510085441 18 292 3.2 16.1 0.00 2.16 0.00 69 1012.0
20260510084941 18 292 3.2 14.5 0.00 2.16 0.00 69 1012.0
20260510084440 18 292 1.6 16.1 0.00 2.16 0.00 70 1012.1
20260510083940 19 292 11.3 16.1 0.00 2.16 0.00 69 1012.1
20260510083440 20 247 6.4 19.3 0.00 2.16 0.00 69 1012.0
20260510082940 19 292 3.2 12.9 0.00 2.21 0.00 71 1012.1
20260510082439 19 292 4.8 12.9 0.00 2.21 0.00 72 1012.1
20260510081939 19 292 0.0 16.1 0.00 2.21 0.00 73 1012.1
20260510081439 18 292 8.0 12.9 0.00 2.21 0.00 74 1012.1
20260510080938 18 292 3.2 14.5 0.00 2.21 0.00 75 1012.0
20260510080438 18 292 1.6 8.0 0.00 2.21 0.00 76 1011.9
20260510075938 18 292 1.6 11.3 0.00 2.21 0.00 76 1011.9
20260510075439 18 292 0.0 9.7 0.00 2.21 0.00 75 1012.0
20260510074937 18 292 6.4 14.5 0.00 2.21 0.00 75 1012.2
20260510074437 18 315 11.3 17.7 0.00 2.21 0.00 76 1012.1
20260510073937 18 292 9.7 14.5 0.00 2.21 0.00 78 1012.1
20260510073436 18 292 6.4 11.3 0.00 2.21 0.00 81 1012.1
20260510072936 17 292 1.6 9.7 0.00 2.21 0.00 82 1012.1
20260510072436 17 292 4.8 9.7 0.00 2.21 0.00 82 1012.1
20260510071935 17 292 0.0 9.7 0.00 2.21 0.00 83 1012.1
20260510071435 16 292 4.8 6.4 0.00 2.21 0.00 85 1012.1
20260510070935 16 315 1.6 9.7 0.00 2.21 0.00 86 1012.2
20260510070435 15 292 3.2 9.7 0.00 2.21 0.00 86 1012.2
20260510065934 15 292 4.8 4.8 0.00 2.21 0.00 86 1012.1
20260510065434 15 292 1.6 6.4 0.00 2.21 0.00 86 1012.2
20260510064934 15 292 0.0 8.0 0.00 2.21 0.00 87 1012.2
20260510064433 15 292 0.0 3.2 0.00 2.21 0.00 88 1012.1
20260510063933 15 292 0.0 1.6 0.00 2.21 0.00 89 1012.1
20260510063433 15 292 0.0 3.2 0.00 2.21 0.00 90 1012.2
20260510062932 15 292 3.2 3.2 0.00 2.21 0.00 91 1012.2
20260510062432 15 292 1.6 3.2 0.00 2.21 0.00 91 1012.3
20260510061932 15 292 0.0 4.8 0.00 2.21 0.00 92 1012.3
20260510061432 14 315 3.2 3.2 0.00 2.21 0.00 92 1012.3
20260510060931 14 315 0.0 3.2 0.00 2.21 0.00 92 1012.3
20260510060431 13 315 0.0 3.2 0.00 2.21 0.00 92 1012.4
20260510055931 13 315 0.0 4.8 0.00 2.21 0.00 93 1012.3
20260510055430 13 315 4.8 8.0 0.00 2.21 0.00 93 1012.3
20260510054930 13 315 8.0 8.0 0.00 2.21 0.00 93 1012.3
20260510054430 13 315 6.4 6.4 0.00 2.21 0.00 93 1012.4
20260510053930 13 292 0.0 0.0 0.00 2.21 0.00 93 1012.4
20260510053429 13 292 0.0 3.2 0.00 2.21 0.00 93 1012.4
20260510052929 12 292 0.0 0.0 0.00 2.21 0.00 93 1012.5
20260510052429 12 292 0.0 0.0 0.00 2.21 0.00 93 1012.4
20260510051928 12 292 0.0 3.2 0.00 2.21 0.00 92 1012.4
20260510051428 12 292 0.0 0.0 0.00 2.21 0.00 92 1012.4
20260510050928 11 292 0.0 1.6 0.00 2.21 0.00 92 1012.4
20260510050428 11 292 0.0 0.0 0.05 2.21 0.00 92 1012.5
20260510045927 11 292 0.0 1.6 0.05 2.21 0.00 92 1012.5
20260510045427 11 292 0.0 3.2 0.05 2.21 0.00 92 1012.6
20260510044927 11 292 1.6 3.2 0.05 2.21 0.00 92 1012.5
20260510044426 11 292 3.2 4.8 0.05 2.21 0.00 92 1012.5
20260510043926 11 292 0.0 6.4 0.05 2.21 0.00 92 1012.5
20260510043426 11 292 1.6 1.6 0.05 2.21 0.00 92 1012.6
20260510042925 11 292 0.0 4.8 0.05 2.21 0.00 92 1012.6
20260510042425 11 292 0.0 4.8 0.10 2.21 0.00 92 1012.5
20260510041925 11 315 0.0 3.2 0.10 2.21 0.00 92 1012.5
20260510041425 11 315 0.0 6.4 0.10 2.21 0.00 92 1012.5
20260510040924 11 315 6.4 9.7 0.10 2.21 0.00 92 1012.4
20260510040424 11 292 8.0 8.0 0.05 2.16 0.00 92 1012.3
20260510035924 11 292 4.8 4.8 0.10 2.16 0.00 92 1012.3
20260510035423 11 292 3.2 6.4 0.10 2.16 0.00 92 1012.2
20260510034923 11 292 3.2 6.4 0.10 2.16 0.00 92 1012.1
20260510034423 11 292 3.2 4.8 0.10 2.16 0.00 92 1012.2
20260510033922 11 292 3.2 4.8 0.10 2.16 0.00 92 1012.1
20260510033422 11 292 3.2 3.2 0.10 2.16 0.00 92 1012.1
20260510032922 11 292 1.6 1.6 0.10 2.16 0.00 92 1012.0
20260510032422 11 292 0.0 3.2 0.05 2.11 0.00 92 1012.0
20260510031921 11 292 0.0 1.6 0.05 2.11 0.00 92 1011.9
20260510031421 11 292 0.0 0.0 0.05 2.11 0.00 92 1011.8
20260510030921 11 292 0.0 0.0 0.10 2.11 0.00 92 1011.8
20260510030420 11 292 0.0 0.0 0.05 2.06 0.00 92 1011.8
20260510025920 11 292 0.0 1.6 0.05 2.06 0.00 92 1011.8
20260510025420 11 292 1.6 3.2 0.10 2.06 0.00 92 1011.8
20260510024920 11 292 1.6 3.2 0.10 2.06 0.00 92 1011.8
20260510024419 11 292 1.6 3.2 0.10 2.06 0.00 92 1011.8
20260510023919 11 292 0.0 4.8 0.10 2.06 0.00 92 1011.8
20260510023419 11 292 0.0 4.8 0.15 2.06 0.00 92 1011.7
20260510022918 11 292 1.6 4.8 0.15 2.06 0.00 92 1011.7
20260510022418 11 292 4.8 8.0 0.20 2.06 0.00 92 1011.6
20260510021918 11 202 0.0 8.0 0.20 2.06 0.00 92 1011.6
20260510021417 11 292 1.6 3.2 0.20 2.06 0.00 92 1011.8
20260510020917 11 292 1.6 8.0 0.20 2.01 0.00 92 1011.7
20260510020417 11 292 1.6 9.7 0.20 2.01 0.00 92 1011.8
20260510015917 11 292 4.8 8.0 0.20 2.01 0.00 92 1011.8
20260510015416 11 292 8.0 9.7 0.15 1.96 0.00 92 1011.9
20260510014916 11 292 6.4 8.0 0.20 1.96 0.00 92 1011.9
20260510014416 11 292 3.2 9.7 0.20 1.96 0.00 92 1011.8
20260510013915 11 292 9.7 12.9 0.15 1.91 0.00 92 1011.8
20260510013415 11 292 4.8 11.3 0.20 1.91 0.00 92 1011.8
20260510012915 11 292 6.4 11.3 0.20 1.91 0.00 92 1011.8
20260510012415 11 292 1.6 11.3 0.15 1.85 0.00 92 1011.8
20260510011914 11 292 4.8 9.7 0.15 1.85 0.00 92 1011.8
20260510011414 11 292 1.6 8.0 0.10 1.80 0.00 92 1011.7
20260510010914 11 292 1.6 9.7 0.10 1.80 0.00 92 1011.7
20260510010413 11 292 4.8 11.3 0.15 1.80 0.00 92 1011.7
20260510005913 11 292 3.2 11.3 0.15 1.80 0.00 92 1011.7
20260510005413 11 292 4.8 14.5 0.15 1.80 0.00 92 1011.7
20260510004912 11 247 14.5 16.1 0.15 1.75 0.00 92 1011.6
20260510004412 11 292 4.8 12.9 0.15 1.75 0.00 92 1011.6
20260510003912 11 315 3.2 12.9 0.10 1.70 0.00 92 1011.6
20260510003412 11 315 6.4 9.7 0.10 1.70 0.00 92 1011.5
20260510002911 11 247 6.4 12.9 0.10 1.70 0.00 92 1011.5
20260510002411 11 292 3.2 16.1 0.10 1.70 0.00 92 1011.5
20260510001911 11 315 4.8 12.9 0.10 1.70 0.00 92 1011.6
20260510001410 11 247 6.4 11.3 0.10 1.70 0.00 92 1011.5
20260510000910 11 315 4.8 12.9 0.10 1.65 0.00 92 1011.5
20260510000411 11 225 6.4 8.0 0.10 1.65 0.00 92 1011.4
20260509235910 11 247 8.0 8.0 0.10 1.65 0.00 92 1011.4
20260509235409 11 292 1.6 6.4 0.10 1.65 0.00 92 1011.5
20260509234909 11 292 1.6 6.4 0.05 1.60 0.00 92 1011.6
20260509234409 11 292 0.0 14.5 0.05 1.60 0.00 92 1011.6
20260509233908 11 315 14.5 14.5 0.05 1.60 0.00 92 1011.6
20260509233408 11 315 3.2 11.3 0.05 1.60 0.00 92 1011.7
20260509232908 11 292 4.8 9.7 0.10 1.60 0.00 92 1011.7
20260509232408 11 292 3.2 6.4 0.15 1.60 0.00 92 1011.7
20260509231907 11 292 1.6 6.4 0.20 1.60 0.00 92 1011.7
20260509231407 11 247 4.8 8.0 0.20 1.55 0.00 92 1011.7
20260509230907 11 315 3.2 6.4 0.25 1.55 0.00 92 1011.8
20260509230406 11 292 0.0 4.8 0.25 1.55 0.00 92 1011.9
20260509225906 11 315 0.0 3.2 0.25 1.55 0.00 92 1011.9
20260509225406 11 315 0.0 3.2 0.30 1.55 0.00 92 1011.9
20260509224905 11 315 3.2 4.8 0.30 1.55 0.00 92 1011.9
20260509224405 11 315 0.0 4.8 0.30 1.55 0.00 92 1011.9
20260509223905 11 315 1.6 6.4 0.30 1.55 0.00 92 1011.9
20260509223405 11 315 1.6 4.8 0.25 1.50 0.00 92 1012.0
20260509222904 11 315 3.2 6.4 0.30 1.50 0.00 92 1012.0
20260509222404 11 292 4.8 9.7 0.20 1.40 0.00 92 1012.0
20260509221904 11 292 3.2 9.7 0.20 1.40 0.00 92 1011.9
20260509221403 11 315 3.2 4.8 0.10 1.27 0.00 92 1011.9
20260509220903 11 315 4.8 4.8 0.15 1.27 0.00 91 1011.9
20260509220403 11 315 1.6 6.4 0.15 1.27 0.00 91 1011.9
20260509215903 11 225 0.0 8.0 0.15 1.22 0.00 91 1012.0
20260509215402 11 202 6.4 11.3 0.15 1.22 0.00 91 1012.0
20260509214902 11 292 0.0 3.2 0.15 1.22 0.00 91 1012.0
20260509214402 11 292 1.6 3.2 0.15 1.22 0.00 91 1012.0
20260509213901 11 292 3.2 3.2 0.15 1.22 0.00 91 1011.9
20260509213401 11 292 3.2 4.8 0.10 1.17 0.00 91 1012.0
20260509212901 11 292 3.2 3.2 0.15 1.22 0.00 91 1012.0
20260509212400 11 292 0.0 4.8 0.15 1.22 0.00 91 1012.1
20260509211900 11 292 0.0 6.4 0.20 1.22 0.00 91 1012.1
20260509211400 11 292 0.0 4.8 0.20 1.22 0.00 91 1012.0
20260509210900 11 292 4.8 4.8 0.15 1.17 0.00 91 1012.1
20260509210359 11 292 3.2 8.0 0.15 1.17 0.00 91 1012.1
20260509205859 11 292 1.6 6.4 0.10 1.12 0.00 91 1012.0
20260509205359 11 292 4.8 9.7 0.15 1.12 0.00 91 1012.1
20260509204858 11 292 0.0 9.7 0.15 1.12 0.00 91 1012.0
20260509204358 11 292 9.7 9.7 0.20 1.12 0.00 91 1012.1
20260509203858 11 292 0.0 6.4 0.20 1.12 0.00 91 1012.0
20260509203358 11 292 1.6 6.4 0.20 1.07 0.00 91 1012.0
20260509202857 12 292 3.2 12.9 0.20 1.12 0.00 91 1012.0
20260509202357 12 292 1.6 8.0 0.20 1.12 0.00 91 1012.1
20260509201857 12 292 4.8 16.1 0.15 1.07 0.00 91 1012.0
20260509201356 12 247 1.6 11.3 0.15 1.07 0.00 91 1011.9
20260509200856 12 225 4.8 8.0 0.15 1.07 0.00 91 1011.9
20260509200356 12 292 0.0 6.4 0.20 1.07 0.00 91 1011.9
20260509195856 12 292 1.6 6.4 0.15 1.02 0.00 91 1011.9
20260509195355 12 315 0.0 4.8 0.20 1.02 0.00 91 1011.9
20260509194855 12 315 0.0 3.2 0.20 1.02 0.00 91 1011.9
20260509194355 12 315 0.0 6.4 0.15 0.97 0.00 91 1011.9
20260509193854 12 0 3.2 6.4 0.15 0.97 0.00 91 1011.9
20260509193354 12 22 3.2 9.7 0.10 0.91 0.00 90 1011.8
20260509192854 12 0 3.2 4.8 0.10 0.97 0.00 90 1011.8
20260509192353 12 0 1.6 4.8 0.10 0.97 0.00 100 1011.7
20260509191853 12 0 1.6 4.8 0.10 0.97 0.00 91 1011.6
20260509191353 13 337 1.6 4.8 0.10 0.97 0.00 91 1011.7
20260509190853 13 0 1.6 4.8 0.10 0.97 0.00 91 1011.7
20260509190352 13 0 1.6 6.4 0.05 0.91 0.00 91 1011.6
20260509185852 13 337 6.4 6.4 0.00 0.86 0.00 90 1011.7
20260509185352 13 337 3.2 4.8 0.00 0.86 0.00 90 1011.6
20260509184851 13 0 1.6 8.0 0.00 0.86 0.00 90 1011.4
20260509184351 13 337 3.2 6.4 0.00 0.86 0.00 90 1011.5
20260509183851 13 292 6.4 6.4 0.00 0.86 0.00 90 1011.4
20260509183351 13 292 3.2 3.2 0.00 0.86 0.00 90 1011.4
20260509182850 13 292 1.6 4.8 0.00 0.91 0.00 90 1011.3
20260509182350 13 292 3.2 3.2 0.00 0.91 0.00 90 1011.3
20260509181850 13 292 1.6 6.4 0.00 0.91 0.00 90 1011.3
20260509181349 13 292 3.2 4.8 0.00 0.91 0.00 90 1011.3
20260509180849 13 292 0.0 6.4 0.00 0.91 0.00 90 1011.1
20260509180349 13 315 4.8 4.8 0.00 0.91 0.00 90 1011.1
20260509175848 13 292 1.6 3.2 0.00 0.91 0.00 90 1011.0
20260509175348 13 292 3.2 3.2 0.00 0.91 0.00 90 1011.0
20260509174848 13 292 3.2 3.2 0.00 0.91 0.00 90 1010.9
20260509174348 13 292 3.2 3.2 0.00 0.91 0.00 90 1010.8
20260509173847 13 315 3.2 3.2 0.00 0.91 0.00 90 1010.9
20260509173347 13 315 1.6 3.2 0.00 0.91 0.00 90 1010.8
20260509172847 13 315 1.6 4.8 0.00 0.91 0.00 90 1010.8
20260509172346 13 315 1.6 3.2 0.00 0.91 0.00 89 1010.8
20260509171846 13 315 0.0 6.4 0.00 0.91 0.00 89 1010.8
20260509171346 13 337 0.0 3.2 0.00 0.91 0.00 89 1010.7
20260509170846 13 337 0.0 3.2 0.00 0.91 0.00 89 1010.7
20260509170345 13 337 0.0 1.6 0.00 0.91 0.00 89 1010.6
20260509165845 13 337 0.0 1.6 0.00 0.91 0.00 89 1010.5
20260509165345 13 337 1.6 4.8 0.00 0.91 0.00 89 1010.5
20260509164844 13 337 1.6 4.8 0.00 0.91 0.00 89 1010.5
20260509164344 13 0 1.6 3.2 0.00 0.91 0.00 89 1010.4
20260509163844 13 22 0.0 3.2 0.00 0.91 0.00 89 1010.4
20260509163343 14 22 1.6 1.6 0.00 0.91 0.00 89 1010.3
20260509162843 14 22 1.6 1.6 0.00 0.91 0.00 89 1010.2
20260509162343 13 22 0.0 1.6 0.00 0.91 0.00 89 1010.2
20260509161843 13 22 1.6 1.6 0.00 0.91 0.00 89 1010.2
20260509161342 13 45 0.0 1.6 0.00 0.91 0.00 89 1010.2
20260509160842 13 22 1.6 3.2 0.00 0.91 0.00 89 1010.2
20260509160342 13 22 0.0 3.2 0.00 0.91 0.00 89 1010.2
20260509155841 14 22 3.2 3.2 0.00 0.91 0.00 89 1010.2
20260509155341 14 45 0.0 1.6 0.00 0.91 0.00 89 1010.1
20260509154841 14 45 0.0 3.2 0.00 0.91 0.00 89 1010.1
20260509154341 14 45 1.6 3.2 0.00 0.91 0.00 89 1010.0
20260509153840 14 45 3.2 3.2 0.00 0.91 0.00 89 1009.9
20260509153340 14 45 0.0 0.0 0.00 0.91 0.00 89 1010.0
20260509152840 13 45 0.0 0.0 0.00 0.91 0.00 89 1010.0
20260509152339 13 45 0.0 4.8 0.00 0.91 0.00 89 1010.0
20260509151839 14 67 1.6 8.0 0.00 0.91 0.00 88 1010.0
20260509151339 14 67 1.6 4.8 0.05 0.91 0.00 88 1010.0
20260509150838 14 67 1.6 6.4 0.05 0.91 0.00 88 1010.0
20260509150338 14 22 3.2 6.4 0.05 0.91 0.00 88 1010.0
20260509145838 14 67 4.8 6.4 0.05 0.91 0.00 88 1009.8
20260509145338 14 337 3.2 6.4 0.05 0.91 0.00 88 1009.8
20260509144837 14 45 3.2 8.0 0.05 0.91 0.00 88 1009.9
20260509144337 14 67 1.6 9.7 0.05 0.91 0.00 89 1009.9
20260509143837 14 22 6.4 6.4 0.05 0.91 0.00 89 1009.9
20260509143336 14 0 1.6 3.2 0.05 0.91 0.00 89 1009.9
20260509142836 13 22 3.2 4.8 0.05 0.91 0.00 88 1009.9
20260509142336 13 45 1.6 4.8 0.05 0.91 0.00 88 1009.9
20260509141836 13 45 1.6 6.4 0.05 0.91 0.00 88 1009.9
20260509141335 14 45 1.6 6.4 0.00 0.86 0.00 87 1009.9
20260509140835 14 45 4.8 9.7 0.00 0.86 0.00 87 1009.9
20260509140335 14 45 4.8 9.7 0.00 0.86 0.00 87 1009.8
20260509135834 14 67 4.8 12.9 0.00 0.86 0.00 87 1009.6
20260509135334 15 45 6.4 11.3 0.00 0.86 0.00 87 1009.6
20260509134834 15 45 11.3 11.3 0.00 0.86 0.00 88 1009.7
20260509134333 15 45 11.3 12.9 0.00 0.86 0.00 88 1009.6
20260509133833 14 45 3.2 11.3 0.00 0.86 0.00 89 1009.6
20260509133333 14 22 0.0 6.4 0.00 0.86 0.00 89 1009.6
20260509132833 14 0 0.0 6.4 0.00 0.86 0.00 89 1009.6
20260509132332 14 45 3.2 9.7 0.00 0.86 0.00 89 1009.5
20260509131832 14 45 1.6 6.4 0.00 0.86 0.00 89 1009.7
20260509131332 14 337 0.0 9.7 0.05 0.86 0.00 89 1009.7
20260509130831 14 337 3.2 6.4 0.05 0.86 0.00 89 1009.7
20260509130331 14 337 0.0 8.0 0.05 0.86 0.00 89 1009.6
20260509125831 14 0 3.2 9.7 0.10 0.86 0.00 90 1009.8
20260509125331 14 22 1.6 9.7 0.36 0.86 0.00 90 1009.8
20260509124830 14 22 4.8 12.9 0.36 0.86 0.00 90 1009.9
20260509124330 14 45 1.6 4.8 0.41 0.86 0.00 90 1009.9
20260509123830 14 45 0.0 9.7 0.41 0.86 0.00 90 1010.0
20260509123329 14 45 3.2 8.0 0.46 0.86 0.00 90 1010.1
20260509122829 13 45 3.2 8.0 0.46 0.86 0.00 90 1010.0
20260509122329 14 45 6.4 8.0 0.46 0.86 0.00 89 1010.2
20260509121828 13 0 3.2 3.2 0.46 0.86 0.00 89 1010.1
20260509121328 13 0 3.2 4.8 0.41 0.81 0.00 89 1010.1
20260509120828 13 337 0.0 4.8 0.41 0.81 0.00 89 1010.3
20260509120328 13 337 4.8 6.4 0.36 0.76 0.00 89 1010.5
20260509115827 14 337 1.6 9.7 0.25 0.66 0.00 89 1010.4
20260509115327 14 22 3.2 12.9 0.10 0.51 0.00 88 1010.6
20260509114827 14 22 8.0 11.3 0.05 0.46 0.00 88 1010.5
20260509114326 15 22 4.8 11.3 0.05 0.46 0.00 88 1010.5
20260509113826 15 0 6.4 6.4 0.00 0.41 0.00 88 1010.5
20260509113326 15 45 1.6 12.9 0.05 0.41 0.00 87 1010.4
20260509112826 15 45 6.4 9.7 0.05 0.56 0.00 88 1010.4
20260509112325 15 22 4.8 9.7 0.05 0.56 0.00 88 1010.4
20260509111825 15 22 6.4 8.0 0.05 0.56 0.00 88 1010.4
20260509111325 15 45 1.6 8.0 0.05 0.56 0.00 88 1010.3
20260509110824 15 45 3.2 8.0 0.05 0.56 0.00 88 1010.3
20260509110324 15 22 3.2 8.0 0.05 0.56 0.00 88 1010.3
20260509105824 15 22 3.2 6.4 0.05 0.56 0.00 89 1010.4
20260509105323 15 22 0.0 3.2 0.05 0.56 0.00 88 1010.4
20260509104823 15 45 0.0 12.9 0.10 0.56 0.00 88 1010.4
20260509104323 15 315 12.9 12.9 0.10 0.56 0.00 88 1010.3
20260509103823 15 45 1.6 8.0 0.05 0.51 0.00 88 1010.4
20260509103322 15 45 6.4 11.3 0.05 0.51 0.00 89 1010.5
20260509102822 15 0 0.0 4.8 0.10 0.51 0.00 90 1010.5